| time (UTC) | temp F | wind direction | speed MPH | gust MPH | rain 1hr in | rain 24hr in | rain mn in | humidity % | barometer mb |
| 20260504034658 | 48 | 267 | 6.0 | 8.0 | 0.07 | 0.14 | 0.14 | 89 | 1008.4 |
| 20260504034155 | 47 | 260 | 4.0 | 15.0 | 0.07 | 0.13 | 0.13 | 91 | 1008.6 |
| 20260504033653 | 46 | 240 | 5.0 | 7.0 | 0.19 | 0.13 | 0.13 | 95 | 1008.7 |
| 20260504033150 | 46 | 207 | 3.0 | 8.0 | 0.24 | 0.12 | 0.12 | 95 | 1009.0 |
| 20260504032647 | 46 | 199 | 4.0 | 10.0 | 0.24 | 0.09 | 0.09 | 95 | 1009.3 |
| 20260504032144 | 46 | 220 | 8.0 | 11.0 | 0.24 | 0.07 | 0.07 | 95 | 1009.4 |
| 20260504031641 | 46 | 238 | 7.0 | 14.0 | 0.19 | 0.05 | 0.05 | 94 | 1009.3 |
| 20260504031137 | 46 | 205 | 9.0 | 15.0 | 0.12 | 0.03 | 0.03 | 92 | 1009.3 |
| 20260504030634 | 46 | 225 | 4.0 | 11.0 | 0.05 | 0.02 | 0.02 | 92 | 1009.2 |
| 20260504030131 | 46 | 196 | 2.0 | 7.0 | 0.00 | 0.01 | 0.01 | 92 | 1009.2 |
| 20260504025628 | 45 | 206 | 3.0 | 6.0 | 0.00 | 0.01 | 0.01 | 93 | 1009.0 |
| 20260504025124 | 45 | 261 | 4.0 | 7.0 | 0.00 | 0.01 | 0.01 | 94 | 1008.9 |
| 20260504024622 | 45 | 188 | 1.0 | 2.0 | 0.00 | 0.01 | 0.01 | 94 | 1009.0 |
| 20260504024118 | 45 | 226 | 2.0 | 2.0 | 0.00 | 0.01 | 0.01 | 94 | 1009.0 |
| 20260504023615 | 44 | 182 | 2.0 | 3.0 | 0.00 | 0.01 | 0.01 | 94 | 1009.1 |
| 20260504023111 | 44 | 201 | 2.0 | 4.0 | 0.00 | 0.01 | 0.01 | 94 | 1008.9 |
| 20260504022607 | 44 | 184 | 1.0 | 6.0 | 0.00 | 0.01 | 0.01 | 94 | 1009.2 |
| 20260504022103 | 44 | 187 | 5.0 | 8.0 | 0.00 | 0.01 | 0.01 | 94 | 1009.1 |
| 20260504021601 | 44 | 178 | 4.0 | 6.0 | 0.00 | 0.01 | 0.01 | 93 | 1008.9 |
| 20260504021058 | 44 | 161 | 3.0 | 8.0 | 0.00 | 0.01 | 0.01 | 93 | 1009.0 |
| 20260504020555 | 44 | 192 | 4.0 | 8.0 | 0.00 | 0.01 | 0.01 | 92 | 1009.0 |
| 20260504020051 | 44 | 181 | 5.0 | 8.0 | 0.07 | 0.01 | 0.01 | 91 | 1009.0 |
| 20260504015548 | 44 | 151 | 4.0 | 7.0 | 0.07 | 0.01 | 0.01 | 90 | 1009.3 |
| 20260504015043 | 44 | 164 | 7.0 | 8.0 | 0.00 | 0.00 | 0.00 | 86 | 1009.3 |
| 20260504014540 | 44 | 189 | 5.0 | 8.0 | 0.00 | 0.00 | 0.00 | 84 | 1009.2 |
| 20260504014037 | 44 | 157 | 6.0 | 7.0 | 0.00 | 0.00 | 0.00 | 82 | 1009.1 |
| 20260504013535 | 44 | 154 | 5.0 | 8.0 | 0.00 | 0.00 | 0.00 | 81 | 1009.2 |
| 20260504013032 | 44 | 165 | 6.0 | 8.0 | 0.00 | 0.00 | 0.00 | 80 | 1009.2 |
| 20260504012529 | 44 | 178 | 5.0 | 8.0 | 0.00 | 0.00 | 0.00 | 79 | 1008.9 |
| 20260504012027 | 44 | 152 | 3.0 | 7.0 | 0.00 | 0.00 | 0.00 | 79 | 1009.2 |
| 20260504011523 | 44 | 180 | 6.0 | 10.0 | 0.00 | 0.00 | 0.00 | 78 | 1009.3 |
| 20260504011019 | 44 | 138 | 5.0 | 9.0 | 0.00 | 0.00 | 0.00 | 76 | 1009.1 |
| 20260504010515 | 44 | 167 | 5.0 | 9.0 | 0.00 | 0.00 | 0.00 | 77 | 1009.1 |
| 20260504010011 | 45 | 138 | 6.0 | 9.0 | 0.00 | 0.00 | 0.00 | 70 | 1009.2 |
| 20260504005508 | 45 | 186 | 4.0 | 6.0 | 0.00 | 0.00 | 0.00 | 68 | 1009.1 |
| 20260504005006 | 45 | 167 | 6.0 | 9.0 | 0.00 | 0.00 | 0.00 | 67 | 1008.9 |
| 20260504004503 | 45 | 148 | 5.0 | 9.0 | 0.00 | 0.00 | 0.00 | 68 | 1009.2 |
| 20260504004000 | 45 | 128 | 5.0 | 9.0 | 0.00 | 0.00 | 0.00 | 67 | 1009.1 |
| 20260504003456 | 45 | 201 | 5.0 | 10.0 | 0.00 | 0.00 | 0.00 | 67 | 1009.1 |
| 20260504002953 | 45 | 176 | 8.0 | 9.0 | 0.00 | 0.00 | 0.00 | 66 | 1009.0 |
| 20260504002450 | 45 | 167 | 4.0 | 7.0 | 0.00 | 0.00 | 0.00 | 66 | 1009.0 |
| 20260504001948 | 45 | 162 | 5.0 | 9.0 | 0.00 | 0.00 | 0.00 | 66 | 1009.1 |
| 20260504001445 | 45 | 227 | 7.0 | 9.0 | 0.00 | 0.00 | 0.00 | 66 | 1009.1 |
| 20260504000942 | 45 | 170 | 5.0 | 10.0 | 0.00 | 0.00 | 0.00 | 66 | 1009.0 |
| 20260504000439 | 44 | 205 | 5.0 | 11.0 | 0.00 | 0.00 | 0.00 | 67 | 1008.9 |
| 20260503235936 | 44 | 170 | 8.0 | 10.0 | 0.00 | 0.00 | 0.00 | 68 | 1009.3 |
| 20260503235433 | 44 | 194 | 6.0 | 9.0 | 0.00 | 0.00 | 0.00 | 67 | 1009.1 |
| 20260503234931 | 44 | 175 | 6.0 | 8.0 | 0.00 | 0.00 | 0.00 | 67 | 1009.2 |
| 20260503234428 | 44 | 169 | 7.0 | 8.0 | 0.00 | 0.00 | 0.00 | 67 | 1009.0 |
| 20260503233926 | 44 | 164 | 7.0 | 10.0 | 0.00 | 0.00 | 0.00 | 66 | 1008.8 |
| 20260503233422 | 44 | 172 | 7.0 | 10.0 | 0.00 | 0.00 | 0.00 | 66 | 1008.9 |
| 20260503232919 | 44 | 183 | 6.0 | 8.0 | 0.00 | 0.00 | 0.00 | 68 | 1009.0 |
| 20260503232416 | 44 | 142 | 7.0 | 9.0 | 0.00 | 0.00 | 0.00 | 71 | 1009.1 |
| 20260503231914 | 44 | 142 | 7.0 | 9.0 | 0.00 | 0.00 | 0.00 | 72 | 1009.1 |
| 20260503231411 | 45 | 160 | 6.0 | 10.0 | 0.00 | 0.00 | 0.00 | 72 | 1009.0 |
| 20260503230907 | 46 | 163 | 4.0 | 4.0 | 0.00 | 0.00 | 0.00 | 68 | 1009.0 |
| 20260503230404 | 47 | 171 | 6.0 | 9.0 | 0.00 | 0.00 | 0.00 | 66 | 1009.0 |
| 20260503225901 | 47 | 174 | 4.0 | 7.0 | 0.00 | 0.00 | 0.00 | 63 | 1008.9 |
| 20260503225357 | 48 | 152 | 4.0 | 8.0 | 0.00 | 0.00 | 0.00 | 64 | 1009.0 |
| 20260503224854 | 50 | 150 | 4.0 | 6.0 | 0.00 | 0.00 | 0.00 | 48 | 1009.0 |
| 20260503224351 | 50 | 169 | 4.0 | 6.0 | 0.00 | 0.00 | 0.00 | 44 | 1008.9 |
| 20260503223849 | 50 | 177 | 4.0 | 4.0 | 0.00 | 0.00 | 0.00 | 43 | 1009.1 |
| 20260503223346 | 50 | 187 | 3.0 | 4.0 | 0.00 | 0.00 | 0.00 | 45 | 1009.1 |
| 20260503222841 | 50 | 199 | 2.0 | 4.0 | 0.00 | 0.00 | 0.00 | 45 | 1009.1 |
| 20260503222340 | 51 | 209 | 3.0 | 6.0 | 0.00 | 0.00 | 0.00 | 48 | 1009.3 |
| 20260503221838 | 51 | 172 | 2.0 | 4.0 | 0.00 | 0.00 | 0.00 | 49 | 1009.5 |
| 20260503221337 | 51 | 190 | 5.0 | 7.0 | 0.00 | 0.00 | 0.00 | 47 | 1009.6 |
| 20260503220832 | 52 | 199 | 7.0 | 10.0 | 0.00 | 0.00 | 0.00 | 44 | 1009.6 |
| 20260503220329 | 52 | 188 | 5.0 | 8.0 | 0.00 | 0.00 | 0.00 | 44 | 1009.7 |
| 20260503215826 | 53 | 191 | 3.0 | 8.0 | 0.00 | 0.00 | 0.00 | 40 | 1009.5 |
| 20260503215323 | 54 | 210 | 4.0 | 6.0 | 0.00 | 0.00 | 0.00 | 40 | 1009.4 |
| 20260503214821 | 54 | 178 | 4.0 | 11.0 | 0.00 | 0.00 | 0.00 | 40 | 1009.3 |
| 20260503214318 | 54 | 177 | 3.0 | 9.0 | 0.00 | 0.00 | 0.00 | 38 | 1009.3 |
| 20260503213815 | 54 | 250 | 5.0 | 9.0 | 0.00 | 0.00 | 0.00 | 38 | 1009.2 |
| 20260503213313 | 55 | 220 | 5.0 | 10.0 | 0.00 | 0.00 | 0.00 | 37 | 1009.3 |
| 20260503212809 | 56 | 223 | 2.0 | 13.0 | 0.00 | 0.00 | 0.00 | 38 | 1009.1 |
| 20260503212307 | 55 | 219 | 2.0 | 13.0 | 0.00 | 0.00 | 0.00 | 36 | 1009.3 |
| 20260503211805 | 55 | 190 | 2.0 | 8.0 | 0.00 | 0.00 | 0.00 | 38 | 1009.4 |
| 20260503211301 | 55 | 261 | 9.0 | 10.0 | 0.00 | 0.00 | 0.00 | 36 | 1009.3 |
| 20260503210800 | 55 | 223 | 3.0 | 15.0 | 0.00 | 0.00 | 0.00 | 37 | 1009.2 |
| 20260503210259 | 56 | 240 | 9.0 | 16.0 | 0.00 | 0.00 | 0.00 | 35 | 1009.4 |
| 20260503205754 | 56 | 279 | 6.0 | 8.0 | 0.00 | 0.00 | 0.00 | 35 | 1009.3 |
| 20260503205250 | 55 | 183 | 2.0 | 13.0 | 0.00 | 0.00 | 0.00 | 35 | 1009.5 |
| 20260503204747 | 55 | 276 | 10.0 | 13.0 | 0.00 | 0.00 | 0.00 | 34 | 1009.6 |
| 20260503204245 | 57 | 187 | 4.0 | 8.0 | 0.00 | 0.00 | 0.00 | 35 | 1009.6 |
| 20260503203742 | 57 | 249 | 10.0 | 14.0 | 0.00 | 0.00 | 0.00 | 33 | 1009.5 |
| 20260503203239 | 55 | 238 | 2.0 | 11.0 | 0.00 | 0.00 | 0.00 | 35 | 1009.6 |
| 20260503202736 | 55 | 210 | 6.0 | 11.0 | 0.00 | 0.00 | 0.00 | 33 | 1009.6 |
| 20260503202234 | 55 | 210 | 4.0 | 8.0 | 0.00 | 0.00 | 0.00 | 33 | 1009.7 |
| 20260503201732 | 56 | 268 | 3.0 | 11.0 | 0.00 | 0.00 | 0.00 | 32 | 1009.8 |
| 20260503201229 | 55 | 217 | 6.0 | 11.0 | 0.00 | 0.00 | 0.00 | 33 | 1009.6 |
| 20260503200725 | 56 | 214 | 6.0 | 9.0 | 0.00 | 0.00 | 0.00 | 35 | 1009.9 |
| 20260503200222 | 56 | 221 | 5.0 | 8.0 | 0.00 | 0.00 | 0.00 | 32 | 1010.1 |
| 20260503195718 | 55 | 258 | 4.0 | 9.0 | 0.00 | 0.00 | 0.00 | 34 | 1010.2 |
| 20260503195216 | 55 | 225 | 4.0 | 15.0 | 0.00 | 0.00 | 0.00 | 33 | 1010.2 |
| 20260503194713 | 56 | 251 | 7.0 | 14.0 | 0.00 | 0.00 | 0.00 | 34 | 1010.0 |
| 20260503194209 | 54 | 208 | 6.0 | 15.0 | 0.00 | 0.00 | 0.00 | 33 | 1010.3 |
| 20260503193705 | 54 | 233 | 4.0 | 17.0 | 0.00 | 0.00 | 0.00 | 34 | 1010.5 |
| 20260503193201 | 53 | 198 | 3.0 | 14.0 | 0.00 | 0.00 | 0.00 | 38 | 1010.5 |
| 20260503192657 | 53 | 218 | 9.0 | 15.0 | 0.00 | 0.00 | 0.00 | 37 | 1010.6 |
| 20260503192152 | 54 | 249 | 8.0 | 11.0 | 0.00 | 0.00 | 0.00 | 34 | 1010.6 |
| 20260503191649 | 55 | 201 | 6.0 | 9.0 | 0.00 | 0.00 | 0.00 | 36 | 1010.8 |
| 20260503191146 | 53 | 189 | 3.0 | 10.0 | 0.00 | 0.00 | 0.00 | 40 | 1010.8 |
| 20260503190643 | 54 | 225 | 6.0 | 8.0 | 0.00 | 0.00 | 0.00 | 39 | 1010.9 |
| 20260503190140 | 54 | 291 | 7.0 | 17.0 | 0.00 | 0.00 | 0.00 | 41 | 1011.0 |
| 20260503185637 | 55 | 238 | 6.0 | 15.0 | 0.00 | 0.00 | 0.00 | 40 | 1010.9 |
| 20260503185132 | 55 | 279 | 13.0 | 17.0 | 0.00 | 0.00 | 0.00 | 39 | 1010.9 |
| 20260503184627 | 55 | 295 | 7.0 | 15.0 | 0.00 | 0.00 | 0.00 | 41 | 1010.9 |
| 20260503184124 | 54 | 174 | 5.0 | 13.0 | 0.00 | 0.00 | 0.00 | 42 | 1010.9 |
| 20260503183620 | 54 | 213 | 7.0 | 11.0 | 0.00 | 0.00 | 0.00 | 46 | 1011.1 |
| 20260503183118 | 54 | 284 | 9.0 | 14.0 | 0.00 | 0.00 | 0.00 | 44 | 1011.0 |
| 20260503182616 | 54 | 237 | 6.0 | 9.0 | 0.00 | 0.00 | 0.00 | 44 | 1011.1 |
| 20260503182114 | 54 | 228 | 12.0 | 16.0 | 0.00 | 0.00 | 0.00 | 44 | 1011.0 |
| 20260503181610 | 55 | 259 | 2.0 | 15.0 | 0.00 | 0.00 | 0.00 | 45 | 1011.2 |
| 20260503181107 | 55 | 254 | 8.0 | 17.0 | 0.00 | 0.00 | 0.00 | 46 | 1011.1 |
| 20260503180604 | 54 | 216 | 7.0 | 13.0 | 0.00 | 0.00 | 0.00 | 46 | 1011.3 |
| 20260503175559 | 53 | 210 | 5.0 | 14.0 | 0.00 | 0.00 | 0.00 | 44 | 1011.2 |
| 20260503175056 | 53 | 183 | 2.0 | 16.0 | 0.00 | 0.00 | 0.00 | 46 | 1011.3 |
| 20260503174553 | 53 | 267 | 7.0 | 15.0 | 0.00 | 0.00 | 0.00 | 44 | 1011.5 |
| 20260503174049 | 53 | 258 | 6.0 | 14.0 | 0.00 | 0.00 | 0.00 | 42 | 1011.7 |
| 20260503173544 | 53 | 204 | 10.0 | 15.0 | 0.00 | 0.00 | 0.00 | 43 | 1011.7 |
| 20260503173041 | 54 | 201 | 12.0 | 15.0 | 0.00 | 0.00 | 0.00 | 40 | 1011.7 |
| 20260503172539 | 54 | 179 | 2.0 | 14.0 | 0.00 | 0.00 | 0.00 | 44 | 1011.9 |
| 20260503172035 | 53 | 232 | 3.0 | 6.0 | 0.00 | 0.00 | 0.00 | 42 | 1011.7 |
| 20260503171532 | 52 | 185 | 6.0 | 15.0 | 0.00 | 0.00 | 0.00 | 42 | 1011.8 |
| 20260503171030 | 52 | 272 | 10.0 | 14.0 | 0.00 | 0.00 | 0.00 | 41 | 1011.8 |
| 20260503170526 | 52 | 201 | 6.0 | 14.0 | 0.00 | 0.00 | 0.00 | 42 | 1011.8 |
| 20260503150918 | 51 | 225 | 6.0 | 11.0 | 0.00 | 0.00 | 0.00 | 35 | 1013.3 |
| 20260503150415 | 51 | 190 | 1.0 | 4.0 | 0.00 | 0.00 | 0.00 | 39 | 1013.3 |
| 20260503131308 | 43 | 267 | 4.0 | 11.0 | 0.00 | 0.00 | 0.00 | 53 | 1013.9 |
| 20260503130805 | 42 | 331 | 4.0 | 11.0 | 0.00 | 0.00 | 0.00 | 54 | 1013.9 |
| 20260503130302 | 43 | 272 | 4.0 | 8.0 | 0.00 | 0.00 | 0.00 | 54 | 1014.0 |
| 20260503110656 | 37 | 248 | 3.0 | 7.0 | 0.00 | 0.00 | 0.00 | 65 | 1013.7 |
| 20260503110153 | 37 | 290 | 4.0 | 6.0 | 0.00 | 0.00 | 0.00 | 66 | 1013.8 |
| 20260503100120 | 36 | 174 | 2.0 | 4.0 | 0.00 | 0.00 | 0.00 | 72 | 1013.5 |
| 20260503081509 | 39 | 267 | 5.0 | 8.0 | 0.00 | 0.00 | 0.00 | 70 | 1013.8 |
| 20260503081007 | 39 | 250 | 7.0 | 11.0 | 0.00 | 0.00 | 0.00 | 69 | 1013.7 |
| 20260503080503 | 38 | 261 | 5.0 | 9.0 | 0.00 | 0.00 | 0.00 | 67 | 1013.6 |
| 20260503072939 | 39 | 243 | 8.0 | 11.0 | 0.00 | 0.00 | 0.00 | 67 | 1013.6 |
| 20260503072437 | 39 | 299 | 6.0 | 10.0 | 0.00 | 0.00 | 0.00 | 68 | 1013.6 |
| 20260503071933 | 39 | 277 | 9.0 | 11.0 | 0.00 | 0.00 | 0.00 | 67 | 1013.8 |
| 20260503071430 | 39 | 322 | 5.0 | 10.0 | 0.00 | 0.00 | 0.00 | 67 | 1013.8 |
| 20260503070926 | 39 | 285 | 4.0 | 7.0 | 0.00 | 0.00 | 0.00 | 68 | 1013.8 |
| 20260503070424 | 39 | 278 | 4.0 | 9.0 | 0.00 | 0.00 | 0.00 | 66 | 1013.8 |
| 20260503054837 | 40 | 230 | 6.0 | 10.0 | 0.00 | 0.00 | 0.00 | 68 | 1013.8 |
| 20260503054333 | 41 | 310 | 3.0 | 10.0 | 0.00 | 0.00 | 0.00 | 67 | 1013.7 |
| 20260503053831 | 41 | 198 | 6.0 | 8.0 | 0.00 | 0.00 | 0.00 | 67 | 1013.7 |
| 20260503053329 | 41 | 282 | 4.0 | 6.0 | 0.00 | 0.00 | 0.00 | 67 | 1013.9 |
| 20260503052825 | 41 | 191 | 3.0 | 6.0 | 0.00 | 0.00 | 0.00 | 67 | 1013.8 |
| 20260503052322 | 41 | 277 | 4.0 | 7.0 | 0.00 | 0.00 | 0.00 | 67 | 1014.0 |
| 20260503051818 | 41 | 246 | 3.0 | 4.0 | 0.00 | 0.00 | 0.00 | 68 | 1014.1 |
| 20260503051315 | 41 | 274 | 3.0 | 9.0 | 0.00 | 0.00 | 0.00 | 67 | 1014.1 |
| 20260503050812 | 41 | 261 | 3.0 | 7.0 | 0.00 | 0.00 | 0.00 | 67 | 1014.2 |
| 20260503050308 | 41 | 246 | 5.0 | 11.0 | 0.00 | 0.00 | 0.00 | 67 | 1014.2 |
| 20260503045806 | 41 | 282 | 6.0 | 9.0 | 0.00 | 0.00 | 0.00 | 67 | 1014.2 |
| 20260503045305 | 41 | 290 | 5.0 | 8.0 | 0.00 | 0.00 | 0.00 | 67 | 1014.1 |
| 20260503044759 | 41 | 314 | 3.0 | 6.0 | 0.00 | 0.00 | 0.00 | 67 | 1014.0 |
| 20260503044256 | 41 | 224 | 4.0 | 9.0 | 0.00 | 0.00 | 0.00 | 66 | 1014.1 |
| 20260503043754 | 41 | 272 | 5.0 | 8.0 | 0.00 | 0.00 | 0.00 | 67 | 1014.3 |
| 20260503043251 | 42 | 272 | 4.0 | 7.0 | 0.00 | 0.00 | 0.00 | 67 | 1014.2 |
| 20260503042746 | 41 | 258 | 6.0 | 7.0 | 0.00 | 0.00 | 0.00 | 67 | 1014.3 |
| 20260503042243 | 42 | 209 | 5.0 | 10.0 | 0.00 | 0.00 | 0.00 | 67 | 1014.4 |
| 20260503041739 | 42 | 245 | 6.0 | 8.0 | 0.00 | 0.00 | 0.00 | 66 | 1014.5 |
| 20260503041237 | 42 | 233 | 3.0 | 7.0 | 0.00 | 0.00 | 0.00 | 67 | 1014.3 |
| 20260503040735 | 42 | 259 | 5.0 | 8.0 | 0.00 | 0.00 | 0.00 | 66 | 1014.2 |
| 20260503040232 | 42 | 273 | 3.0 | 8.0 | 0.00 | 0.00 | 0.00 | 66 | 1014.3 |
| 20260503035729 | 42 | 245 | 6.0 | 9.0 | 0.00 | 0.00 | 0.00 | 66 | 1014.5 |
| 20260503035221 | 42 | 297 | 4.0 | 8.0 | 0.00 | 0.00 | 0.00 | 66 | 1014.4 |